Skip Page Navigation
NASA JPL Caltech
NASA Logo - Jet Propulsion Laboratory + View the NASA Portal
+ Center for Near-Earth Object Studies
JPL Home Earth Solar System Stars & Galaxies Technology
JPL Solar System Dynamics
BODIES ORBITS EPHEMERIDES TOOLS PHYSICAL DATA DISCOVERY FAQ SITE MAP
JPL Small-Body Database Browser
Search: [ help ]  
180076 (2003 CO12)
Classification: Main-belt Asteroid          SPK-ID: 2180076
Ephemeris | Orbit Diagram | Orbital Elements | Mission Design | Physical Parameters | Discovery Circumstances | Close-Approach Data ]

[ show orbit diagram ]
Orbital Elements at Epoch 2459200.5 (2020-Dec-17.0) TDB
Reference: JPL 16 (heliocentric ecliptic J2000)
 Element Value Uncertainty (1-sigma)   Units 
e .02840069568385 7.4947e-08  
a 2.866328507997881 2.4683e-08 au
q 2.784922784312289 2.2791e-07 au
i 6.891033710108721 1.3165e-05 deg
node 331.8092157041013 4.6549e-05 deg
peri 128.1459289527877 0.00025571 deg
M 279.652605548601 0.00024916 deg
tp 2459596.100351282192
(2022-Jan-16.60035128)
0.0012259 TDB
period 1772.504602470149
4.85
2.2895e-05
6.268e-08
d
yr
n .2031024345427971 2.6235e-09 deg/d
Q 2.947734231683472 2.5384e-08 au
  Orbit Determination Parameters
   # obs. used (total)      334  
   data-arc span      6986 days (19.13 yr)  
   first obs. used      2001-10-21  
   last obs. used      2020-12-06  
   planetary ephem.      DE441  
   SB-pert. ephem.      SB441-N16  
   condition code      0  
   norm. resid. RMS      .54791  
   source      ORB  
   producer      Otto Matic  
   solution date      2021-Apr-13 21:25:02  

Additional Information
 Earth MOID = 1.80754 au 
 Jupiter MOID = 2.089 au 
 T_jup = 3.288 
[ show covariance matrix ]

Ephemeris | Orbit Diagram | Orbital Elements | Mission Design | Physical Parameters | Discovery Circumstances | Close-Approach Data ]

Physical Parameter Table
Parameter Symbol Value Units Sigma Reference Notes
absolute magnitude H 15.72   n/a E2021B55  

180076 (2003 CO12)          Discovered 2003-Feb-02 by NEAT at Palomar
Reference: 20080321/Numbers.arcLast Updated: 2008-03-26

[ show close-approach data ]
Ephemeris | Orbit Diagram | Orbital Elements | Mission Design | Physical Parameters | Discovery Circumstances | Close-Approach Data ]
ABOUT SSD CREDITS/AWARDS PRIVACY/COPYRIGHT GLOSSARY LINKS
FirstGov 2021-Apr-18 04:25 UT
(server date/time)  
NASA Home Page
Site Manager:   Ryan S. Park
Webmaster  Alan B. Chamberlin